Find YAM-8

NORAD ID: 63254 Int'l Des: 2025-052 Owner: LOFT Country: US operational
LEOCIRCULARRETROGRADESSO

Current View

Loading 3D Globe...

About YAM-8

Description loading...

Upcoming Passes

Passes for default location (London). Set your location on the main map for personalized predictions.

Altitude History

Loading altitude history...

Two-Line Element Set

1 63254U 25052AW 26149.30525193 .00006388 00000-0 37900-3 0 9991
2 63254 97.6966 50.6547 0000637 269.2457 90.8700 15.11700038 66410
Epoch: May 29, 2026 • Age: 22 hours

Current Status

Altitude 535.9 km
Velocity 7.60 km/s
Sub-Earth Point 34.24°N, 72.81°E
Launch Date Mar 15, 2025
Age 1.2 years
Type other

Technical Details

Classification Payload
Mass 150.00 kg
Dry Mass 140.00 kg
Total Mass 150.00 kg
Length 1.30 m
Diameter 1.00 m
Span 5.00 m
Shape Trapezoid+2 pan
Manufacturer ADST
Bus Type ARROW
Phase Status In Orbit
Owner/State LOFT/US

Most Searched